Temp
14 14 14 13 13 14 13 13 13 13 13 13 13 13 12 12 12 12 11 11 11 11 11 11 10 11 11 11 11 11 11 11 11 11 10 10 10 10 10 10 10 10
14 14 14 14 14 14 14 14 13 13 13 13 13 13 12 12 12 12 12 11 11 11 11 11 11 10 10 11 11 11 11 11 11 10 10 10 10 10 10 10 10 10
15 15 15 14 14 14 14 14 14 14 14 13 13 13 13 13 12 12 12 11 11 11 11 11 11 11 10 10 10 10 10 10 10 10 10 10 10 9 9 9 9 10
15 15 15 15 15 14 14 14 14 14 14 14 13 13 13 13 13 12 12 12 11 11 11 11 11 11 11 10 10 10 10 10 10 10 10 10 10 9 9 9 9 9
15 15 15 15 15 15 14 14 14 14 14 14 13 13 13 13 13 13 12 12 11 11 11 11 11 11 11 11 11 10 10 10 10 10 9 9 9 9 9 9 9 9
15 15 15 15 15 15 15 14 14 14 14 14 13 13 13 13 13 13 13 12 12 11 11 11 11 11 11 11 11 11 10 10 10 9 9 9 9 9 9 9 9 9
16 15 15 15 15 15 15 14 14 14 14 14 13 13 13 13 13 13 13 12 12 12 12 12 11 11 11 11 11 11 10 10 10 9 9 9 9 9 9 9 9 9
16 15 15 15 15 15 15 14 14 14 14 14 14 14 13 13 13 13 13 13 12 12 12 12 12 11 11 11 11 10 10 10 10 9 9 9 9 9 9 9 9 9
16 15 15 15 15 15 15 14 14 14 14 14 14 14 14 14 14 13 13 13 13 12 12 12 12 12 11 11 11 11 10 10 10 9 9 9 9 9 9 8 8 8
16 15 15 15 15 15 15 14 14 14 14 14 14 14 14 14 14 13 13 13 13 13 13 12 12 12 12 11 11 10 10 9 9 9 9 9 9 9 9 8 8 8
15 15 15 15 15 15 15 14 14 14 14 14 14 14 14 14 14 13 13 13 13 13 13 13 12 12 12 11 10 10 9 9 9 9 9 9 9 8 8 8 8 8
15 15 15 15 15 14 14 14 14 14 14 14 14 14 14 14 13 13 13 13 13 13 13 12 12 12 11 10 10 10 9 9 9 9 8 9 8 8 8 8 8 7
15 15 15 15 15 14 14 14 14 14 14 14 14 14 13 13 13 13 13 13 13 13 12 12 12 12 11 10 10 10 9 9 9 9 9 8 8 8 8 8 7 7
15 15 15 15 15 14 14 14 14 14 14 14 13 13 13 13 13 13 13 13 13 12 12 12 12 11 11 10 10 10 10 9 9 9 9 8 8 8 8 7 7 7
15 15 15 15 14 14 14 14 14 14 14 14 13 13 13 13 13 13 13 13 13 12 12 12 11 11 11 11 10 10 10 9 9 9 9 8 8 8 7 7 7 7
15 15 15 15 15 14 14 14 14 14 14 14 13 13 13 13 13 13 13 13 13 12 12 12 12 11 11 11 10 10 10 9 9 9 8 8 7 7 7 7 7 7
15 15 15 15 15 15 14 14 14 14 14 14 13 13 13 13 13 13 13 13 13 13 12 12 12 11 11 11 10 10 9 9 9 8 8 8 7 7 7 7 6 6
16 15 15 15 15 15 14 14 14 14 14 14 14 13 13 13 13 13 13 13 13 13 13 12 12 11 11 11 10 9 9 9 8 8 8 7 7 7 6 6 6 6
16 15 15 15 15 15 14 14 14 14 14 14 14 13 13 13 13 13 13 13 13 13 13 13 12 12 11 11 10 9 9 9 9 8 8 7 7 7 6 6 6 6
16 16 15 15 15 14 14 14 14 14 14 14 14 13 13 13 14 14 13 13 13 13 13 13 13 12 12 11 10 9 9 8 8 8 7 7 7 6 6 6 6 6
16 16 15 15 15 14 14 14 14 14 14 14 13 13 13 13 14 13 13 13 13 13 13 13 13 13 12 12 11 9 8 7 7 7 7 7 7 6 6 6 6 6
16 16 15 15 15 15 14 14 14 14 14 13 13 13 13 14 13 13 13 13 13 13 13 13 13 13 12 11 10 8 8 8 8 8 7 7 7 6 5 5 5 5
17 16 16 15 15 15 15 15 14 14 14 14 14 14 14 13 13 13 13 13 13 13 13 13 13 13 12 11 10 9 9 8 8 8 8 7 6 5 5 5 5 5
17 17 16 16 15 15 15 15 14 14 14 14 14 14 14 14 13 13 13 13 13 13 13 13 13 13 12 11 10 9 9 8 8 8 7 7 6 5 5 5 5 5
17 17 16 16 15 15 15 15 14 14 14 14 14 14 14 14 14 14 13 13 13 13 13 13 13 12 12 11 10 9 8 8 8 8 7 7 6 6 6 5 5 4
17 17 16 16 15 15 15 14 14 14 14 14 14 14 14 14 14 13 13 13 13 13 13 12 12 12 11 10 10 9 8 8 8 8 7 7 7 6 6 5 4 4
Height
3183 3184 3186 3187 3188 3190 3191 3193 3194 3195 3196 3198 3199 3201 3202 3203 3203 3204 3205 3206 3206 3207 3207 3208 3208 3208 3207 3207 3207 3207 3206 3206 3205 3205 3204 3203 3203 3202 3202 3201 3200 3199
3181 3182 3183 3184 3186 3187 3189 3190 3192 3193 3195 3196 3198 3199 3200 3201 3201 3202 3204 3205 3205 3205 3206 3206 3207 3206 3205 3205 3205 3205 3205 3204 3204 3203 3203 3202 3201 3201 3200 3200 3199 3198
3178 3180 3181 3182 3184 3185 3187 3189 3190 3192 3193 3194 3196 3197 3198 3199 3200 3201 3202 3203 3203 3204 3204 3205 3205 3205 3204 3203 3203 3202 3202 3202 3202 3202 3201 3201 3200 3199 3199 3198 3198 3197
3176 3177 3179 3180 3182 3184 3185 3187 3188 3190 3191 3192 3194 3195 3196 3197 3198 3199 3200 3201 3202 3202 3202 3203 3203 3203 3203 3202 3201 3200 3200 3200 3200 3200 3199 3199 3199 3198 3197 3197 3196 3195
3174 3175 3177 3178 3180 3181 3183 3184 3186 3188 3189 3190 3192 3193 3194 3195 3196 3197 3198 3199 3200 3200 3200 3200 3201 3201 3201 3201 3200 3199 3198 3198 3198 3198 3198 3197 3197 3196 3196 3195 3195 3194
3171 3173 3175 3176 3178 3179 3181 3182 3184 3186 3187 3188 3190 3191 3192 3193 3194 3195 3196 3197 3198 3198 3198 3198 3199 3199 3199 3199 3199 3198 3197 3197 3197 3197 3196 3196 3195 3195 3194 3193 3193 3192
3169 3171 3173 3174 3176 3177 3179 3180 3182 3183 3185 3186 3188 3189 3190 3191 3192 3193 3194 3195 3196 3196 3196 3196 3196 3197 3196 3197 3197 3197 3196 3195 3195 3195 3195 3194 3194 3193 3192 3192 3191 3190
3167 3169 3170 3172 3173 3175 3177 3178 3180 3181 3183 3184 3185 3186 3187 3188 3189 3190 3192 3193 3193 3194 3194 3193 3194 3194 3194 3194 3194 3194 3194 3193 3193 3193 3192 3192 3192 3191 3190 3190 3189 3188
3165 3166 3168 3170 3171 3173 3174 3176 3177 3179 3180 3182 3183 3184 3185 3185 3187 3188 3189 3190 3190 3191 3191 3191 3191 3192 3192 3191 3191 3192 3192 3191 3191 3191 3190 3190 3189 3189 3188 3187 3187 3186
3162 3164 3166 3167 3169 3170 3172 3173 3175 3177 3178 3179 3180 3181 3182 3183 3184 3185 3186 3187 3187 3187 3187 3188 3188 3189 3189 3189 3189 3190 3190 3189 3189 3189 3188 3188 3187 3186 3186 3185 3184 3184
3160 3162 3163 3165 3166 3168 3169 3171 3173 3174 3175 3176 3177 3178 3179 3180 3181 3182 3183 3183 3184 3184 3185 3184 3185 3185 3185 3186 3187 3187 3187 3187 3186 3186 3186 3185 3184 3184 3183 3183 3182 3182
3157 3159 3160 3162 3164 3166 3167 3169 3170 3171 3173 3173 3174 3175 3176 3177 3178 3179 3180 3181 3181 3182 3182 3182 3182 3182 3182 3183 3184 3184 3184 3184 3183 3182 3182 3182 3182 3181 3181 3180 3180 3180
3155 3156 3158 3160 3161 3163 3165 3166 3167 3168 3169 3171 3172 3172 3173 3174 3175 3176 3177 3178 3178 3179 3179 3179 3179 3178 3178 3179 3181 3181 3181 3181 3180 3178 3178 3178 3178 3179 3178 3178 3177 3177
3152 3154 3156 3157 3159 3161 3162 3163 3164 3165 3166 3168 3169 3169 3170 3171 3172 3173 3174 3175 3175 3176 3176 3176 3175 3175 3174 3175 3176 3177 3177 3177 3177 3176 3174 3174 3175 3175 3175 3175 3175 3175
3150 3151 3153 3154 3156 3157 3159 3160 3161 3162 3163 3164 3165 3166 3167 3168 3169 3170 3170 3171 3172 3172 3172 3172 3171 3170 3170 3170 3172 3173 3173 3173 3173 3172 3171 3170 3170 3171 3172 3172 3172 3172
3147 3148 3150 3151 3153 3154 3156 3157 3158 3159 3159 3160 3162 3163 3165 3165 3166 3167 3167 3167 3168 3168 3169 3168 3167 3166 3165 3166 3168 3169 3169 3168 3168 3167 3166 3166 3166 3167 3168 3168 3168 3169
3143 3145 3146 3148 3149 3151 3152 3154 3155 3156 3156 3157 3159 3160 3161 3162 3163 3163 3164 3164 3164 3165 3165 3165 3164 3162 3162 3163 3164 3164 3164 3163 3162 3162 3162 3162 3162 3162 3163 3164 3164 3164
3139 3141 3143 3144 3146 3147 3149 3150 3152 3152 3153 3154 3156 3157 3158 3159 3159 3160 3161 3162 3162 3162 3162 3161 3161 3159 3159 3159 3160 3160 3159 3158 3157 3158 3158 3158 3157 3157 3158 3159 3159 3160
3135 3137 3139 3140 3142 3144 3145 3147 3148 3149 3150 3151 3153 3154 3155 3155 3156 3157 3158 3158 3159 3159 3158 3158 3157 3155 3155 3155 3155 3154 3154 3153 3154 3154 3154 3154 3154 3154 3154 3155 3155 3156
3130 3132 3135 3137 3139 3140 3142 3143 3145 3146 3147 3148 3149 3150 3151 3152 3153 3153 3154 3155 3156 3156 3156 3155 3153 3152 3150 3149 3149 3150 3150 3150 3152 3152 3152 3151 3151 3151 3151 3151 3151 3152
3125 3128 3131 3133 3135 3137 3138 3140 3142 3143 3144 3145 3146 3147 3149 3149 3149 3150 3151 3151 3152 3152 3152 3151 3151 3149 3147 3146 3146 3146 3145 3147 3150 3150 3148 3148 3147 3147 3147 3147 3146 3147
3121 3124 3126 3129 3132 3133 3135 3137 3138 3140 3141 3142 3143 3144 3145 3146 3147 3147 3147 3147 3147 3147 3148 3148 3148 3147 3144 3143 3143 3142 3142 3145 3146 3144 3143 3143 3143 3143 3143 3143 3143 3143
3116 3119 3122 3125 3128 3130 3132 3134 3136 3138 3139 3140 3141 3142 3143 3143 3144 3144 3145 3145 3144 3144 3144 3144 3144 3144 3142 3140 3139 3138 3138 3140 3139 3137 3137 3137 3137 3138 3139 3139 3139 3139
3112 3115 3119 3122 3124 3127 3129 3131 3133 3135 3136 3137 3138 3139 3140 3140 3141 3141 3142 3142 3141 3140 3140 3139 3140 3140 3138 3136 3135 3134 3134 3134 3133 3132 3132 3132 3132 3133 3133 3133 3133 3134
3108 3112 3115 3118 3121 3124 3127 3129 3130 3132 3133 3135 3135 3136 3137 3137 3137 3138 3138 3139 3138 3137 3136 3135 3135 3135 3134 3132 3131 3130 3130 3130 3129 3128 3128 3128 3128 3128 3128 3128 3129 3131
3105 3108 3112 3115 3119 3122 3124 3126 3128 3129 3131 3132 3132 3133 3133 3133 3134 3134 3135 3135 3134 3133 3132 3132 3132 3131 3129 3128 3128 3127 3127 3126 3125 3124 3124 3124 3124 3124 3124 3125 3127 3128
Wind_Speed
21 20 21 22 22 21 20 20 19 17 15 14 14 15 16 16 16 16 14 14 14 14 12 12 13 13 13 14 14 14 15 17 19 21 22 22 19 16 15 16 17 16
21 21 21 22 22 21 20 19 18 18 16 15 15 16 16 17 18 17 16 16 17 17 16 15 15 15 15 16 17 17 18 19 21 22 22 23 21 17 15 16 17 17
21 21 22 22 21 21 19 18 18 18 18 17 17 18 17 17 18 17 16 17 18 19 19 19 18 17 17 19 20 21 20 20 21 22 23 23 22 19 17 16 17 17
21 22 22 22 21 21 20 19 18 19 19 18 17 18 18 18 17 17 17 18 20 21 22 21 21 20 19 20 22 24 23 22 22 22 23 23 22 21 20 18 17 17
21 22 22 22 22 22 21 19 19 20 20 19 18 18 18 18 18 18 18 19 20 23 24 24 23 23 22 22 24 26 26 25 24 24 24 23 23 23 22 19 17 16
22 22 23 22 22 22 21 20 20 20 21 20 19 18 18 19 19 18 19 20 21 24 26 26 25 25 25 24 25 26 27 27 27 27 26 25 25 24 23 20 17 16
21 22 23 23 23 22 22 22 21 21 21 21 20 19 19 19 19 18 19 20 22 25 27 27 27 26 26 26 26 26 27 28 28 28 27 27 26 25 23 20 17 16
21 22 23 23 24 23 22 22 22 21 21 21 20 20 20 19 19 19 19 20 22 24 26 27 27 27 27 27 26 26 27 28 29 29 28 28 27 25 24 21 17 16
21 22 23 23 24 23 23 23 22 21 21 20 20 21 21 20 20 20 20 21 22 24 26 27 28 28 28 28 27 27 27 28 29 29 29 29 28 26 25 22 18 17
21 22 23 23 23 23 23 23 22 22 21 20 20 20 21 21 21 21 21 22 23 24 25 27 28 28 28 28 28 26 26 27 28 29 29 29 29 28 26 23 20 18
21 21 22 22 23 23 23 23 22 21 20 19 19 20 21 21 20 20 20 21 22 23 24 26 27 28 29 28 27 26 25 25 27 28 29 30 30 28 26 24 21 19
21 21 21 21 21 21 21 21 21 20 20 19 19 20 20 19 18 17 17 19 21 21 22 24 26 27 28 27 26 26 25 25 25 27 29 31 31 28 27 26 22 19
22 20 20 20 20 19 19 19 19 20 19 19 18 19 19 18 17 16 16 18 20 21 22 24 26 27 29 28 28 28 28 27 27 27 28 30 30 29 28 26 21 19
23 21 20 20 20 19 19 18 18 19 19 18 19 19 18 17 17 18 19 20 22 22 23 25 27 28 30 31 30 29 30 29 29 28 25 26 28 29 27 25 20 19
24 23 23 22 21 21 20 19 19 19 19 19 20 19 19 19 19 20 22 23 24 24 24 26 28 30 31 32 32 30 29 30 30 28 24 23 27 28 26 23 20 20
27 26 25 24 23 22 20 20 20 20 21 21 20 20 20 21 22 23 24 24 25 25 25 26 28 31 32 32 32 31 29 30 30 28 25 22 26 28 25 23 22 22
30 29 27 26 25 23 21 21 21 22 23 22 21 21 21 23 24 24 24 24 26 26 27 27 29 31 33 33 33 31 30 32 31 28 26 23 26 30 28 25 24 24
32 31 30 28 26 25 24 23 23 24 24 23 22 22 23 25 25 25 25 25 26 27 27 28 30 32 33 34 33 31 31 32 31 29 27 25 27 30 29 28 27 26
33 33 32 31 29 27 26 26 25 25 25 23 23 24 25 26 26 26 26 26 25 24 24 26 29 31 32 33 33 32 33 34 32 31 30 29 29 30 31 31 30 27
33 34 34 33 31 30 29 28 27 26 25 25 26 26 26 27 27 28 28 27 24 23 23 25 28 29 31 33 34 33 33 32 31 32 34 33 32 31 32 33 32 30
34 34 34 34 33 32 31 29 27 26 26 27 27 27 27 28 29 30 28 26 24 24 25 26 28 29 32 34 35 34 34 31 30 32 34 33 32 31 31 33 35 33
34 34 34 33 33 32 31 29 27 26 27 27 28 28 29 29 29 28 26 24 23 24 25 26 28 30 33 35 34 35 33 30 29 31 31 29 30 30 31 35 35 32
35 35 34 33 32 31 30 29 27 27 28 28 29 28 28 26 25 23 22 23 24 25 26 28 29 30 33 34 34 33 30 26 27 29 29 27 28 29 31 34 35 32
36 35 33 32 31 30 29 28 28 28 29 28 27 26 24 22 21 21 21 22 24 26 29 30 31 31 33 34 33 31 27 25 27 29 29 28 29 29 32 35 37 34
37 35 33 31 30 29 28 28 29 29 28 26 24 22 21 20 21 21 22 22 24 27 30 32 32 33 34 33 31 28 26 27 31 32 31 30 30 32 35 37 36 33
40 36 33 31 29 28 28 29 29 28 25 23 21 21 21 20 21 21 21 22 25 29 31 32 33 35 34 30 29 29 29 32 34 33 31 32 32 33 34 34 33 32
Wind_Direction
233 233 233 234 234 234 234 233 232 233 234 231 228 227 227 225 227 231 232 236 245 251 253 262 276 289 299 306 313 318 320 324 331 337 345 349 344 336 336 336 335 335
232 230 230 231 231 231 231 230 230 232 234 234 233 232 231 229 231 235 234 235 245 253 256 261 271 282 292 300 305 308 312 317 322 328 335 342 342 335 331 332 332 331
230 228 229 230 229 229 230 227 227 229 233 234 233 235 237 236 236 239 238 238 245 254 259 264 270 278 287 296 301 304 307 311 317 322 326 333 338 336 329 328 329 328
229 227 228 228 228 229 229 228 225 227 232 234 233 236 239 241 242 243 243 243 248 255 261 266 271 278 285 293 298 301 303 306 310 315 319 325 332 334 328 323 324 324
228 227 227 227 226 227 228 228 227 227 231 235 236 238 241 245 247 247 247 247 250 257 263 267 271 277 284 291 295 298 300 303 305 309 314 318 324 330 328 320 318 318
226 225 225 226 226 226 228 229 229 229 232 236 239 242 245 248 250 250 251 250 251 257 263 268 272 277 283 289 293 296 298 299 301 304 309 312 315 323 327 319 311 310
224 224 225 226 226 227 228 230 232 233 234 238 241 246 250 253 256 256 254 253 252 256 263 269 273 276 281 287 290 293 295 296 297 299 302 305 308 315 323 318 307 304
224 225 225 227 228 229 230 232 235 235 237 240 243 249 255 260 264 263 261 259 258 259 264 270 274 276 280 286 290 292 291 291 294 295 296 301 303 308 318 317 304 299
223 224 226 228 229 231 233 235 237 239 242 244 246 251 256 262 268 269 268 268 268 268 269 273 275 276 279 286 291 293 292 290 291 291 293 298 300 302 311 313 302 296
222 223 225 228 229 232 235 237 239 242 246 250 252 254 258 264 269 273 274 274 275 276 277 278 280 281 282 284 287 290 293 294 290 289 290 294 296 298 305 309 301 294
221 221 223 226 228 231 235 238 241 244 248 253 256 258 262 266 270 275 277 277 278 280 282 283 284 284 282 282 283 284 290 295 291 287 287 290 291 293 299 303 298 294
220 220 222 224 226 229 234 238 242 245 248 252 257 262 265 267 270 272 274 276 278 280 281 282 284 284 281 279 278 278 286 296 296 290 286 285 286 289 295 299 295 289
221 222 223 224 226 228 232 236 240 244 246 249 253 258 261 265 268 271 273 276 278 279 281 282 282 283 281 279 277 278 285 295 301 298 286 278 279 284 291 296 290 283
222 224 225 226 227 228 231 234 237 241 243 244 247 250 256 263 270 275 277 277 278 281 283 283 282 282 282 281 282 286 289 293 298 298 286 273 273 279 286 291 284 277
223 225 227 227 227 227 229 231 234 238 241 242 244 248 255 263 270 276 278 279 281 283 283 284 284 283 283 283 285 290 293 293 293 293 287 274 270 275 282 284 277 272
225 226 228 228 228 228 229 230 233 237 241 244 246 251 257 263 269 275 279 283 286 286 287 288 287 285 286 287 288 290 291 290 289 290 289 277 269 271 276 277 273 270
225 227 227 229 229 229 229 230 233 237 241 245 249 252 258 263 268 274 280 286 290 293 294 293 290 289 290 291 290 289 289 287 286 289 287 276 268 270 273 274 271 264
224 226 227 229 229 230 231 231 234 238 241 246 251 255 260 264 269 276 282 286 292 296 297 297 295 292 291 292 290 286 285 283 282 284 283 276 272 272 270 269 268 264
222 224 226 228 229 231 232 233 236 239 243 247 253 258 262 267 273 279 282 286 292 295 297 298 297 293 291 289 285 281 281 280 280 283 284 281 277 272 267 267 269 269
222 223 223 225 229 231 233 235 237 240 244 248 253 257 262 269 274 278 282 286 288 290 293 293 292 291 289 286 283 280 276 274 279 284 284 283 278 271 267 266 268 270
222 222 222 224 227 230 233 237 239 241 244 248 253 259 264 269 274 280 284 287 287 287 288 287 286 286 286 287 287 279 269 270 281 284 281 279 276 271 266 262 265 270
222 222 223 223 225 228 233 236 238 241 246 251 255 259 264 271 277 281 284 286 288 287 286 285 285 284 285 288 287 281 278 285 291 286 280 275 272 269 262 259 265 272
226 223 223 223 224 227 231 233 237 242 247 251 256 261 267 272 275 277 279 284 286 287 286 286 285 284 284 286 287 290 297 301 293 286 284 276 268 264 260 259 265 268
231 227 224 224 225 226 228 231 237 242 247 252 257 262 265 267 268 271 274 279 283 284 285 286 285 284 284 287 292 299 303 300 292 289 288 280 270 264 262 263 264 265
234 231 226 224 225 226 227 231 238 243 248 251 254 256 259 264 269 269 269 275 281 284 285 285 285 285 285 289 295 298 296 292 290 289 287 284 278 271 270 270 268 270
234 233 229 226 226 226 229 235 241 244 244 244 248 253 258 263 266 266 269 277 283 284 284 284 283 283 285 286 289 290 289 288 289 289 287 283 279 276 275 275 275 276